STARLINK-34548, 64716

Orbit data source: Space-Track

STARLINK-34548, 64716 is a payload satellite owned by SpaceX/Seattle (US) in LEO that was launched on Sat, 28 Jun 2025 UTC via an FALCON 9 launch vehicle from the Air Force Western Test Range (AFWTR). Payload-class satellites include a variety of spacecraft equipped with specific instruments for various scientific and technological missions. These include communications satellites like Starlink; space stations such as the ISS; scientific satellites like the Hubble; Earth observation satellites from companies like Planet Labs, Umbra, and HawkEye 360; GPS; miniature CubeSats for education and research; and military/defense satellites.

Loading next visibility...
Identifier
64716, 2025-142W
Orbit
LEO
Country
Flag of USUS
Related business
Manufacturer
SpaceX/Seattle
Mission
Operational Commercial Communications
Bus & Motor
STARLINK V2MO, Unknown motor
Mass
575 kg wet, ~530 kg dry
Launch date (UTC)
2025-06-28 (11 months ago)
Launch vehicle
FALCON 9
Launch site
Air Force Western Test Range (AFWTR)
Object type
Payload
Rocket body
Debris
Shape & HBR
Box + 2 Pan, 17.7 m
Radar Cross Section
36.964 m², Large (>1 m²)

Expand to show TLE details & history
Last TLE update: 10 hours ago

TLE from 10 hours ago
0 STARLINK-34548
1 64716U 25142W   26145.32959058  .00004281  00000-0  36629-3 0  9991
2 64716  69.9997 121.1005 0003886 264.4851  95.5865 14.98338149 50946
Epoch: 2026-05-25T07:54Z
TLE epoch observation values (Epoch: 2026-05-25T07:54:36.626Z)
Latitude
0.00001°
Longitude
119.52895°
Altitude
574.719 km
Speed
7.574 km/s
True Right ascension
08h 04m 24s
True Declination
0° 00' 00"
Sunlit
Object was in daylight at epoch
Visualization orbit readout
Latitude
Unknown
Longitude
Unknown
Altitude
Unknown
Speed
Unknown
Apparent Right ascension
Unknown
Apparent Declination
Unknown
Sunlit
N/A
Visualization observer readout
Local Sidereal Time
03:10:32
Azimuth
Unknown
Elevation
Unknown
Doppler factor
Unknown
Orbital elements
Apogee altitude
572.679 km
Perigee altitude
567.279 km
Semi-major axis
6,948.116 km
Eccentricity
0.00039
Inclination
69.9997°
RAAN
121.1005°
Arg. of periapsis
264.4851°
True anomaly
95.63082°
Mean anomaly
95.5865°
Eccentric anomaly
95.60866°
Mean motion
3.74751 °/min
Orbital period
96.06 mins
BSTAR
0.00036629
Loading maneuver chart data...
Computing Atmospheric mass density...
Loading historical data...
Loading historical data...
Loading historical data...
Loading historical data...
Loading historical data...
Loading historical data...
Loading historical data...

Documentation

Showing up to 5 results
|